User: anonymous   Login
Location: Theydon Bois
(51.6750°N, 0.1050°E)
Time: 07:16:44
(UTC+01:00)
Language:

GP-B - Orbit

View from above orbital plane
View from above orbital plane
View from above satellite
View from above satellite

Ground track
Ground track

The orbit data is extracted from the following two-line orbital elements,

1 28230U 04014A   17295.60103001 +.00000155 +00000-0 +18938-4 0  9993
2 28230 089.8373 119.5727 0003297 085.7166 274.4433 14.78572691185125
Epoch (UTC): 22 October 2017 14:25:28
Eccentricity: 0.0003297
inclination: 89.8373°
perigee height: 631 km
apogee height: 636 km
right ascension of ascending node: 119.5727°
argument of perigee: 85.7166°
revolutions per day: 14.78572691
mean anomaly at epoch: 274.4433°
orbit number at epoch: 18512

The dashed part of the orbit path shows where the satellite is in the earth's shadow,  

DLR